TimeEST,TemperatureF,Dew PointF,Humidity,Sea Level PressureIn,VisibilityMPH,Wind Direction,Wind SpeedMPH,Gust SpeedMPH,PrecipitationIn,Events,Conditions,WindDirDegrees,DateUTC
12:56 AM,37.0,28.9,73,29.80,10.0,South,8.1,-,N/A,,Overcast,180,2014-01-27 05:56:00
1:56 AM,39.0,32.0,76,29.77,10.0,South,6.9,-,N/A,,Overcast,190,2014-01-27 06:56:00
2:56 AM,39.9,32.0,73,29.74,10.0,South,15.0,20.7,N/A,,Partly Cloudy,190,2014-01-27 07:56:00
3:56 AM,39.9,32.0,73,29.74,10.0,SSW,6.9,-,N/A,,Clear,210,2014-01-27 08:56:00
4:56 AM,39.0,33.1,79,29.72,10.0,SSW,5.8,-,N/A,,Overcast,200,2014-01-27 09:56:00
5:56 AM,39.9,34.0,79,29.69,10.0,South,12.7,-,N/A,,Overcast,190,2014-01-27 10:56:00
6:56 AM,41.0,34.0,76,29.68,10.0,South,10.4,-,N/A,,Overcast,190,2014-01-27 11:56:00
7:56 AM,41.0,35.1,79,29.66,10.0,South,12.7,-,N/A,,Overcast,190,2014-01-27 12:56:00
8:56 AM,43.0,36.0,76,29.66,10.0,SSW,11.5,21.9,N/A,,Overcast,210,2014-01-27 13:56:00
9:56 AM,43.0,35.1,74,29.66,10.0,SW,13.8,21.9,N/A,,Overcast,220,2014-01-27 14:56:00
10:56 AM,43.0,34.0,71,29.66,10.0,SW,15.0,25.3,N/A,,Mostly Cloudy,220,2014-01-27 15:56:00
11:56 AM,41.0,34.0,76,29.64,10.0,SW,12.7,21.9,N/A,,Overcast,220,2014-01-27 16:56:00
12:56 PM,41.0,34.0,76,29.64,10.0,SW,11.5,-,N/A,,Scattered Clouds,220,2014-01-27 17:56:00
1:56 PM,44.1,32.0,63,29.66,10.0,WNW,16.1,-,N/A,,Clear,290,2014-01-27 18:56:00
2:56 PM,42.1,26.1,53,29.71,10.0,NW,18.4,28.8,N/A,,Mostly Cloudy,310,2014-01-27 19:56:00
3:56 PM,37.9,24.1,57,29.77,10.0,NW,12.7,24.2,N/A,,Mostly Cloudy,310,2014-01-27 20:56:00
4:56 PM,32.0,15.1,50,29.82,10.0,NW,16.1,27.6,N/A,,Overcast,310,2014-01-27 21:56:00
5:56 PM,30.0,6.1,36,29.87,10.0,NW,17.3,24.2,N/A,,Overcast,310,2014-01-27 22:56:00
6:56 PM,28.9,5.0,36,29.92,10.0,NW,15.0,23.0,N/A,,Overcast,310,2014-01-27 23:56:00
7:56 PM,28.0,3.9,36,29.95,10.0,NNW,16.1,-,N/A,,Overcast,330,2014-01-28 00:56:00
8:56 PM,27.0,1.0,33,29.99,10.0,NW,15.0,-,N/A,,Overcast,320,2014-01-28 01:56:00
9:56 PM,25.0,-0.0,34,30.02,10.0,NW,16.1,20.7,N/A,,Overcast,310,2014-01-28 02:56:00
10:56 PM,23.0,-0.0,37,30.05,10.0,NNW,12.7,-,N/A,,Clear,330,2014-01-28 03:56:00
11:56 PM,21.9,-0.9,37,30.07,10.0,NW,13.8,23.0,N/A,,Clear,320,2014-01-28 04:56:00